Location: Dompnac
(44.5644°N, 4.1026°E)
Time: 01:03:52
(UTC+00:00)

DELFI C3 - Visible Passes

Search period start: 27 February 2021 00:00
Search period end: 09 March 2021 00:00
Orbit: 532 x 549 km, 97.4° (Epoch: 26 February)

Date Brightness Start Highest point End Pass type
(mag) Time Alt. Az. Time Alt. Az. Time Alt. Az.
27 Feb ? 19:02:39 18° SSE 19:05:27 67° ENE 19:09:22 10° N visible
27 Feb ? 20:40:15 10° W 20:40:27 10° W 20:40:38 10° W visible
28 Feb ? 18:55:13 15° SSE 18:58:18 55° ENE 19:02:08 10° N visible
28 Feb ? 20:31:34 10° WSW 20:33:11 12° W 20:34:49 10° WNW visible
01 Mar ? 18:47:46 12° SE 18:51:08 45° ENE 18:54:53 10° N visible
01 Mar ? 20:23:42 10° SW 20:25:56 15° W 20:28:10 10° NW visible
02 Mar ? 18:40:21 10° SE 18:43:58 37° ENE 18:47:36 10° N visible
02 Mar ? 20:16:01 10° SW 20:18:41 17° W 20:21:21 10° NW visible
03 Mar ? 18:33:20 10° SE 18:36:49 31° ENE 18:40:18 10° N visible
03 Mar ? 20:08:27 10° SW 20:11:26 21° W 20:14:25 10° NW visible
04 Mar ? 18:26:22 10° SE 18:29:39 27° ENE 18:32:57 10° N visible
04 Mar ? 20:00:57 10° SSW 20:04:11 25° W 20:07:26 10° NW visible
05 Mar ? 18:19:26 10° ESE 18:22:30 23° ENE 18:25:34 10° NNE visible
05 Mar ? 19:53:31 10° SSW 19:56:56 29° W 20:00:23 10° NW visible
06 Mar ? 18:12:33 10° ESE 18:15:21 19° ENE 18:18:09 10° NNE visible
06 Mar ? 19:46:05 10° SSW 19:49:41 35° W 19:53:17 10° NNW visible
07 Mar ? 18:05:44 10° ESE 18:08:12 16° ENE 18:10:40 10° NNE visible
07 Mar ? 19:38:43 10° S 19:42:26 42° W 19:46:10 10° NNW visible
08 Mar ? 19:31:23 10° S 19:35:12 52° W 19:39:01 10° NNW visible
